FENGYUN 1C DEB

Satellite information

Favourite Embed

Satellite Type and Status

DEBRISIN ORBIT

Key statistics

Satellite FENGYUN 1C DEB at a glance.

Uptime

9715

Days in orbit

Revolutions

≈ 14.3

Per day

Orbit

SSO

Sun Synchronous Orbit

Inclination

99.1

Latest

Satellite identification and parameters

Extended collection of information and parameters for FENGYUN 1C DEB.

Object identification

Identified? True

Debris? True

Object name: FENGYUN 1C DEB

International designator: 1999-025BRC

Object number (NORAD): 31348

Object ID (CCSDS): 31348

Country: PEOPLES REPUBLIC OF CHINA (PRC)

Current information (Y/N): Y

RCS size: SMALL

Orbital parameters

Period: 100.419 minutes

Inclination: 99.1191 deg

SMA: 7156.549 km

Apoapsis: 803.607 km

Periapsis: 753.221 km

RAAN: 293.0834 deg

Eccentricy: 0.00352025

Argument of periapsis: 78.0004 deg

Mean anomaly: 74.0816 deg

Mean motion: 14.33993846 rev/day

Mean motion (dot): 0.00005507 rev/day2

B* drag term: 0.0019749425 1/REarth

Two-line elements (TLE)

Creation date: Dec. 8, 2025, 6:20 p.m.

Reference frame: TEME

Reference center: EARTH

Epoch: Dec. 8, 2025, 8:10 a.m. UTC

TLE line 0: 0 FENGYUN 1C DEB

TLE line 1: 1 31348U 99025BRC 25342.34081480 .00005507 00000-0 19749-2 0 9997

TLE line 2: 2 31348 99.1191 293.0834 0035202 78.0004 74.0816 14.33993846961867

Live tracking on map

Real-time ground track for satellite FENGYUN 1C DEB.

In-orbit conjunctions

A list of the most updated potential collisions computed for object FENGYUN 1C DEB.

Target Orbit TCA Probability of collision Miss distance Type
SL-8 R/B LEO 2025-11-06 02:55:11 0.0001872184 96.0 (m) ROCKET BODY
COSMOS 407 LEO 2025-08-27 00:40:03 0.0002672744 885.0 (m) PAYLOAD
METEOR 2-10 LEO 2025-06-20 13:29:57 0.0001019355 1000.0 (m) PAYLOAD
FENGYUN 1C DEB SSO 2024-11-15 11:19:01 0.0005930294 209.0 (m) DEBRIS
DMSP 5D-2 F13 DEB SSO 2024-09-27 07:03:39 0.0004395506 590.0 (m) DEBRIS

Associated space launch

Chinese polar orbiting meteorological satellite

FENGYUN 1C DEB was lifted into orbit during the mission ‘Long March 4B | Feng Yun 1C’, on board a Long March 4B space rocket.

The launch took place on May 10, 1999, 1:33 a.m. from Launch Complex 7.

For more information about the launch, click the button.

Launch to space Long March 4B | Feng Yun 1C
Long March 4B | Feng Yun 1C

Agency: N/A

Status: Launch Successful

Launch date: May 10, 1999, 1:33 a.m. UTC

Rocket: Long March 4B

Launch pad: Launch Complex 7

Location: Taiyuan Satellite Launch Center, People's Republic of China

...

Latest news about this satellite

There are no fresh news available about this satellite. Check back as we update our databases every day.


Newsletter sign-up

Weekly statistics, charts and insights to help you stay on top of the space industry.